Regional Weather Roundup
Issued by NWS Upton, NY

Current Version | Previous Version | Text Only | Print | Product List | Glossary On
Versions: 1 2 3 4 5 6 7 8 9 10 11 12 13 14 15 16 17 18 19 20 21 22 23 24 25 26 27 28 29 30 31 32 33 34 35 36 37 38 39 40 41 42 43 44 45 46 47 48 49 50
000
ASUS41 KOKX 061408
RWROKX

REGIONAL WEATHER ROUNDUP
NATIONAL WEATHER SERVICE NEW YORK NY
900 AM EST TUE DEC 06 2016

NOTE: "FAIR" INDICATES FEW OR NO CLOUDS BELOW 12,000 FEET WITH NO
SIGNIFICANT WEATHER AND/OR OBSTRUCTIONS TO VISIBILITY.

NYZ071-072-176-178-NJZ106-104-061500-
NEW YORK CITY METRO AREA

CITY           SKY/WX    TMP DP  RH WIND       PRES   REMARKS
Central Park   PTSUNNY   43  29  57 CALM      30.16R
Wall St Helipt MOSUNNY   44  32  62 VRB3      30.16R
Bronx Bot Gard   N/A     41  30  65 CALM      30.16
LaGuardia APRT CLOUDY    44  30  57 VRB5      30.14R
Kennedy INTL   PTSUNNY   42  30  62 CALM      30.16R
Breezy Point     N/A     41 N/A N/A NE3         N/A
Newark/Liberty CLOUDY    40  31  70 NE6       30.15R
Teterboro      PTSUNNY   37  30  75 CALM      30.14R
$$

NYZ177-179-078>081-061500-
LONG ISLAND NEW YORK

CITY           SKY/WX    TMP DP  RH WIND       PRES   REMARKS
Jones Beach      N/A     41 N/A N/A N3          N/A
Matinecock PT    N/A     43 N/A N/A N5          N/A
Farmingdale    MOSUNNY   37  31  78 CALM      30.15R
MacArthur/ISP  PTSUNNY   36  32  85 CALM      30.14R
Shirley        MOSUNNY   34  32  92 CALM      30.16R
Westhampton    SUNNY     32  30  92 CALM      30.16R
Southampton    NOT AVBL
Bridgehampton  NOT AVBL
East Hampton     N/A     41  32  70 N3        30.14R
Montauk          N/A     44  30  57 N10       30.14R
$$

NYZ052-065-067-061500-
HUDSON VALLEY

CITY           SKY/WX    TMP DP  RH WIND       PRES   REMARKS
White Plains   SUNNY     37  30  75 NW5       30.13R WCI  33
Newburgh       SUNNY     34  30  86 CALM      30.15R
Montgomery     SUNNY     34  29  82 S3        30.13R
Poughkeepsie   SUNNY     30  27  88 CALM      30.15R
Albany         MOSUNNY   37  32  82 CALM      30.14R
$$

NJZ001-105-106-008-010-013-015-019>022-104-061500-
NEW JERSEY

CITY           SKY/WX    TMP DP  RH WIND       PRES   REMARKS
Newark/Liberty CLOUDY    40  31  70 NE6       30.15R
Teterboro      PTSUNNY   37  30  75 CALM      30.14R
Caldwell       MOSUNNY   32  30  92 CALM      30.15R
Somerville     MOSUNNY   31  29  92 CALM      30.13R
Linden           N/A     39  29  67 CALM      30.15S
Sussex         MOSUNNY   27  27 100 CALM      30.13S
Andover          N/A     30  29  96 CALM      30.13S
Trenton        CLOUDY    38  30  73 NE7       30.13R WCI  33
Millville      CLOUDY    40  32  73 NE9       30.12R WCI  34
Atlantic City  CLOUDY    39  31  72 NE7       30.14R WCI  34
Wrightstown    CLOUDY    37  31  79 NE6       30.11R WCI  32
Toms River     MOSUNNY   35  32  88 N5        30.14S WCI  31
Belmar         CLOUDY    37  34  89 N5        30.15R WCI  33
$$

PAZ047>061-062-071-061500-
EASTERN PENNSYLVANIA

CITY           SKY/WX    TMP DP  RH WIND       PRES   REMARKS
Philadelphia   CLOUDY    42  30  62 NE8       30.13F
Allentown      CLOUDY    31  27  85 N3        30.13S
Scranton       CLOUDY    31  27  85 NE6       30.11R WCI  25
$$

CTZ002-004>006-009-010-012-RIZ004-006-007-MAZ004-011-015-061500-
SOUTHERN NEW ENGLAND
 IN CT

CITY           SKY/WX    TMP DP  RH WIND       PRES   REMARKS
Bradley INTL   MOSUNNY   39  31  72 NE3       30.13R
Hartford       SUNNY     35  30  82 CALM      30.14R
Danbury        SUNNY     32  28  85 CALM      30.15R
Wtrbury/Oxford SUNNY     36  27  69 CALM      30.13R
Bridgeport     SUNNY     39  29  67 CALM      30.16R
Meriden        SUNNY     33  29  85 S3        30.14R
New Haven      MOSUNNY   37  32  82 W5        30.15R WCI  33
Chester          N/A     37  30  75 NW3       30.12R
Groton         SUNNY     41  33  73 CALM      30.13R
Wilimantic     SUNNY     31  28  89 CALM      30.14S

 IN RI

CITY           SKY/WX    TMP DP  RH WIND       PRES   REMARKS
Providence     MOSUNNY   38  30  73 CALM      30.13S
Block Island   SUNNY     42  32  67 N8        30.13R
Westerly       SUNNY     37  30  75 CALM      30.14R
 IN MA

CITY           SKY/WX    TMP DP  RH WIND       PRES   REMARKS
Boston         MOSUNNY   38  30  73 NW9       30.13S WCI  31
Worcester      SUNNY     37  25  61 N8        30.08S WCI  31
Westfield      SUNNY     34  32  92 CALM      30.13R
Provincetown   SUNNY     42  30  62 N12       30.11S
Nantucket      MOSUNNY   43  30  60 N20G25    30.09F
$$

ANZ330-335-338-340-345-350-353-355-061500-
COASTAL MARINE OBSERVATIONS


STATION/POSITION TIME  SKY/WX   TEMP    WIND        PRES    VSBY  WAVE
                                AIR SEA DIR/SP/G                  HT/PER
                 (UTC)          (F)     (DEG/KT/KT) (MB)    (MI)  (FT/S)
NY HARB ENTRANCE 1350            45 52   30/ 14/ 16 1020.5          2/11
20 S FIRE ISLAND 1250            45 54   20/ 12/ 16 1019.9          3/ 9
GREAT SOUTH BAY  NOT AVBL
23 SSW MONTAUK P 1250            45 53  360/ 17/ 21 1019.9          3/ 4
15 E BARNEGAT LI 1330               54                N/A           3/11
HUDSON CANYON    1250            49 58              1019.5          5/ 5
KINGS POINT      1336            40 48              1020.6
EXECUTION ROCKS  1345            42     320/  2/  4   N/A
CENTRAL LI SOUND 1315            43 50   20/  6/ 10   N/A           1/ 3
EASTERN LI SOUND NOT AVBL
ROBBINS REEF     1336            40     320/  4/  5 1020.9
$$


>>>>>>>>>>>>>>>>>>>>>>>>>>>> KEY <<<<<<<<<<<<<<<<<<<<<<<<<<<
>                                                          <
>     SKY/WX - Sky Condition/Present Weather               <
>     TMP    - Temperature in Fahrenheit                   <
>     DP     - Dew Point in Fahrenheit                     <
>     RH     - Relative Humidity in Percent                <
>     WIND   - Direction (from) and Speed in MPH           <
>     PRES   - Mean Sea Level Pressure (inches of Hg)      <
>     WCI    - Wind Chill Index                            <
>     VSB    - VISIBILITY IN MILES                         <
>     HX     - HEAT INDEX                                  <
>     TC     - TEMPERATURE IN CELSIUS                      <
>     VRB    - VARIABLE WIND DIRECTION                     <
>                                                          <
>>>>>>>>>>>>>>>>>>>>>>>>>>>> KEY <<<<<<<<<<<<<<<<<<<<<<<<<<<



USA.gov is the U.S. government's official web portal to all federal, state and local government web resources and services.